Zurück zum Katalog

CZ-6A DEB

AktivPO
NORAD 61358·DEBRIS·🇨🇳 China

Gestartet Aug 6, 2024 von Taiyuan Satellite Launch Center

Loading…

Nächste Überflüge (nächste 24 Stunden)

TLE

AktuellSource: Space-Track

Epoche: Sep 13, 2026, 10:45 UTC

1 61358U 24140VX  26256.44800719  .00000681  00000-0  16635-3 0  9997
2 61358  88.9231 253.5234 0085154 333.3719  26.3125 14.49352970107115

Verfolge CZ-6A DEB in Echtzeit mit AllMySat

Download on the App Store